Wind_Speed
33 34 36 37 36 36 37 36 34 34 33 33 33 33 33 33 34 33 32 31 31 30 29 29 28 28 28 28 28 29 29 29 28 28 28 28 28 28 28 27 26 25 24 24 25 25 26 25 24 24 25 27 29 30 32 35 36 33 31 30 28 27 27 27 26 25 24 25 26 26 25 23 21 21 21 21 20 21 21 21 22 22 22 23 23 23 24
29 29 31 32 32 33 33 32 30 30 30 31 30 30 31 32 33 34 33 33 33 32 32 31 31 32 32 32 32 32 32 33 33 33 33 33 32 32 31 30 29 27 26 25 25 25 26 26 26 27 28 29 30 30 31 35 36 33 31 31 31 31 31 31 30 30 30 30 31 30 29 27 26 26 25 26 26 25 24 23 24 24 24 24 25 25 26
29 28 29 29 29 29 30 30 28 27 29 30 29 28 29 31 32 33 34 34 34 35 35 36 37 37 37 36 37 37 37 37 37 37 38 38 37 36 35 34 33 32 31 31 30 30 30 30 31 32 33 32 33 31 29 29 32 32 31 32 33 34 35 35 35 34 34 34 35 34 33 32 31 29 28 27 27 27 26 26 25 26 26 27 27 28 29
32 31 31 32 31 30 31 32 31 31 32 33 34 35 36 37 37 38 38 39 39 40 41 42 43 43 42 42 42 41 40 40 40 40 40 40 40 40 39 37 36 34 34 34 35 35 36 36 36 36 36 35 36 36 34 32 33 35 35 36 37 39 40 40 39 38 37 37 37 37 36 35 35 33 31 30 29 30 30 29 28 28 29 29 30 30 31
36 36 36 36 36 36 36 36 36 36 37 38 40 41 42 42 41 40 40 40 41 42 43 43 44 44 45 45 45 44 43 42 42 41 41 41 41 41 41 40 39 39 39 38 38 38 39 39 39 39 39 39 39 39 39 39 38 38 39 39 40 42 43 43 42 42 41 41 40 39 38 37 36 35 34 34 33 33 33 32 32 31 31 32 32 33 33
39 39 39 40 42 43 43 42 42 42 43 44 44 45 44 43 42 40 39 39 40 41 42 43 44 45 46 46 46 45 45 44 43 43 42 42 42 42 42 43 43 43 42 41 40 39 39 39 40 41 41 41 40 40 40 40 39 39 40 41 42 43 44 45 45 44 44 43 42 41 40 38 36 36 37 37 37 37 36 35 34 34 34 34 34 34 34
41 41 41 42 44 45 44 45 46 46 46 47 47 47 47 46 44 42 40 39 40 41 42 44 44 46 47 47 47 46 45 44 43 42 41 42 42 43 44 45 45 44 42 40 38 37 37 36 36 37 38 39 38 38 38 38 39 40 42 43 43 43 43 44 43 43 43 43 43 43 42 40 40 41 42 42 42 41 40 39 38 37 36 36 36 36 36
44 44 44 44 45 44 44 45 45 46 46 47 48 48 47 46 44 42 40 38 38 39 41 43 44 44 45 46 47 47 46 46 45 45 45 45 46 47 47 48 47 44 41 39 39 39 38 37 36 35 36 37 37 36 36 37 39 40 40 41 41 41 41 41 42 43 44 45 45 45 44 44 44 44 43 43 43 42 41 41 40 39 39 39 39 39 39
45 45 45 45 45 45 45 45 44 44 44 44 44 43 42 40 39 38 37 37 37 37 38 40 42 43 43 44 45 46 46 47 47 47 47 48 48 48 48 48 48 46 44 43 43 44 42 41 40 39 37 37 38 38 38 36 35 34 34 35 37 38 38 38 39 40 41 41 41 40 41 42 42 42 42 42 42 42 42 42 42 42 42 42 42 42 42
45 45 45 46 46 46 45 44 44 43 42 41 40 39 38 38 37 36 36 36 36 37 37 38 40 42 43 43 44 45 45 45 45 45 46 46 46 46 45 45 45 45 44 43 43 43 43 43 43 42 41 41 39 38 38 37 35 34 34 35 35 34 34 35 36 37 37 37 37 37 38 39 40 41 41 42 42 43 44 44 44 45 44 44 44 44 44
46 46 46 46 45 44 44 43 43 42 42 41 40 39 39 38 38 37 36 36 36 37 37 39 40 41 43 44 45 45 45 45 46 46 46 46 46 45 45 45 45 46 47 47 47 48 48 49 49 48 48 48 47 44 42 43 44 45 44 42 36 32 32 34 35 35 35 35 35 37 39 41 42 43 44 45 46 47 47 46 46 46 46 46 45 45 44
46 46 46 46 46 45 44 43 43 43 42 41 41 41 40 39 39 39 39 39 40 41 42 42 42 43 44 45 46 47 47 48 48 48 48 49 50 49 49 50 51 51 52 52 52 52 52 52 52 52 52 52 52 52 51 52 53 54 53 50 45 39 38 38 37 35 33 33 34 35 36 37 39 42 45 48 48 49 48 48 47 46 45 46 45 45 44
46 46 47 47 47 46 45 44 44 43 43 42 42 42 41 40 40 40 41 41 42 42 42 42 42 43 43 44 45 46 48 49 50 50 50 51 52 52 53 53 54 53 53 53 53 53 52 51 50 50 50 49 49 51 53 54 54 55 55 53 51 48 47 48 46 43 40 38 37 38 38 38 39 41 44 47 47 46 46 46 46 46 46 46 46 46 46
44 45 46 46 46 46 45 44 44 42 41 40 39 37 36 34 34 35 36 37 37 37 36 35 36 37 38 39 40 41 42 44 46 48 48 47 48 49 50 51 52 52 52 53 54 52 50 48 47 48 49 49 50 52 54 53 53 54 54 54 53 52 52 54 54 53 51 48 46 45 45 45 45 46 47 48 49 49 48 49 49 49 49 49 49 50 51
41 42 43 43 43 43 42 41 40 39 37 35 34 33 32 32 30 29 30 32 34 34 34 35 36 37 39 41 41 42 42 43 44 45 44 43 44 45 45 46 46 46 47 49 51 52 51 51 51 51 51 52 52 53 54 55 55 55 55 55 56 56 55 56 58 59 59 58 58 56 54 53 53 53 53 54 55 56 56 57 57 56 56 56 56 56 56
39 39 39 39 39 39 38 37 36 35 33 32 32 32 33 34 34 33 33 35 36 35 35 36 38 39 41 43 45 46 47 47 47 48 47 47 48 48 48 48 48 47 47 48 49 50 51 51 52 52 53 53 52 52 52 53 54 55 55 55 55 55 56 56 57 59 60 61 62 62 62 60 59 59 60 61 61 61 60 60 59 59 59 58 58 57 56
37 37 36 36 37 36 35 35 35 34 34 33 34 34 34 35 37 37 39 40 42 42 42 42 42 42 43 45 46 47 48 49 50 51 52 53 54 54 53 53 53 53 53 53 53 53 53 53 53 53 54 53 54 54 54 54 54 54 55 55 54 54 55 55 55 56 57 59 59 60 61 60 59 59 60 61 61 61 60 59 58 57 57 56 56 55 54
35 36 36 36 35 35 34 34 34 34 35 36 37 38 39 39 38 38 39 41 42 43 44 45 45 46 47 48 49 50 50 50 51 52 53 55 56 56 56 57 57 57 57 57 57 56 56 57 57 57 57 57 57 57 58 58 58 58 58 58 58 57 57 57 57 57 57 57 57 58 58 58 58 57 57 57 58 59 59 59 58 57 56 55 54 53 52
32 34 35 36 37 37 38 38 38 37 38 39 39 40 42 42 43 43 42 43 44 45 46 47 47 48 50 51 53 54 54 55 56 56 57 58 59 60 61 62 62 62 62 62 62 61 61 61 61 61 61 62 62 63 63 63 63 63 63 64 63 63 63 63 63 63 62 61 60 59 59 58 58 57 57 57 57 58 58 58 58 58 57 56 55 53 52
29 31 33 34 36 38 40 41 43 43 43 44 45 46 46 47 47 48 48 49 50 51 52 53 54 55 56 57 58 59 61 61 62 62 61 61 62 62 63 63 64 64 64 64 64 64 64 65 65 65 65 65 66 66 67 67 67 67 67 67 67 67 67 67 66 66 65 64 62 61 61 60 59 59 58 58 58 58 58 58 58 58 57 56 55 54 53
27 28 30 31 32 34 36 38 41 42 44 45 47 48 50 51 52 53 54 55 56 57 58 59 60 60 61 62 62 61 62 62 61 61 60 60 60 60 60 60 61 61 61 61 61 62 62 63 64 64 64 64 64 65 65 66 67 68 67 67 66 66 66 66 66 65 65 64 64 63 62 61 60 59 59 59 58 58 57 57 56 56 55 55 54 54 53
23 25 27 28 29 31 33 34 36 37 39 40 42 43 45 47 48 49 50 51 53 53 54 55 56 56 56 57 57 57 58 58 58 58 58 58 58 58 58 59 59 59 60 60 60 60 60 60 61 61 61 61 61 62 62 63 64 65 65 65 65 64 64 64 64 64 64 63 63 62 62 61 60 59 58 58 57 56 55 54 53 53 53 53 52 52 51
22 23 24 26 27 29 30 31 32 34 35 36 38 39 40 41 42 43 44 46 47 48 48 49 50 50 51 52 52 53 54 55 55 56 56 56 56 57 58 58 59 59 59 60 60 60 60 60 60 60 60 60 61 61 62 62 63 63 64 64 64 63 63 62 61 61 61 61 60 60 60 59 59 58 57 56 55 53 52 51 50 51 51 51 50 49 49
22 23 24 25 26 27 28 29 30 31 33 34 35 36 37 38 39 40 41 43 44 45 46 47 48 49 49 50 51 51 52 53 54 55 55 56 56 57 58 58 58 58 59 59 59 59 60 60 60 60 60 60 61 62 63 63 63 63 64 64 64 64 63 62 61 60 59 59 59 59 58 57 56 55 54 53 51 50 49 48 47 48 49 49 48 47 47
22 23 24 24 25 26 27 28 29 31 32 33 34 35 36 37 38 39 40 41 42 44 45 46 47 48 49 49 50 51 51 52 52 53 54 54 54 55 55 55 56 56 57 57 57 58 58 58 58 59 59 59 60 61 62 62 62 62 63 64 64 64 64 63 62 60 59 59 59 58 57 56 54 53 51 49 47 46 45 44 44 45 45 46 46 46 45
22 22 23 24 25 26 27 28 29 30 31 32 33 34 35 36 38 39 40 41 42 43 44 44 45 45 45 45 45 45 45 45 45 45 45 44 44 45 45 46 47 48 49 50 50 51 52 52 53 54 54 54 55 56 56 57 57 57 58 59 60 60 61 61 60 59 59 58 58 58 57 55 54 52 50 48 46 45 43 42 41 41 42 42 43 43 43
21 22 23 24 25 26 28 28 29 30 31 32 33 34 35 35 36 36 36 36 37 37 37 37 37 36 36 36 35 35 35 34 33 33 33 33 34 35 36 37 38 38 39 39 40 41 42 42 43 44 44 45 46 46 47 47 47 47 47 49 50 52 53 55 56 56 56 56 56 56 55 54 53 51 49 48 46 45 43 42 41 40 40 40 40 40 40
21 22 23 24 25 26 27 28 29 29 30 31 31 31 30 30 29 28 28 27 26 26 27 27 27 27 27 28 28 27 27 27 27 28 29 30 31 31 31 32 32 32 33 33 34 34 35 35 35 35 35 36 36 37 37 37 36 35 36 37 39 40 41 41 43 44 46 48 49 51 51 51 50 49 48 47 46 44 43 42 40 39 39 38 38 38 38
21 22 23 24 25 26 26 26 26 26 26 25 25 23 22 21 20 19 19 19 19 20 21 23 23 24 24 25 25 25 25 26 26 26 27 28 29 30 30 31 32 32 32 33 33 33 32 31 30 29 29 30 30 30 29 29 28 28 29 30 31 30 30 31 32 31 33 36 39 42 45 46 46 46 46 45 44 43 42 41 40 39 38 38 37 37 37
20 21 22 22 23 24 24 23 22 20 20 18 16 15 14 15 15 16 16 17 17 18 19 20 21 21 21 22 23 23 23 23 24 25 27 28 29 29 30 31 31 32 33 33 33 33 32 31 29 28 29 29 28 27 26 25 25 25 26 27 27 27 28 30 31 30 29 31 33 34 37 41 42 43 43 42 42 41 40 40 39 38 37 37 36 36 35
19 20 20 21 21 21 20 19 17 16 14 12 11 12 13 14 15 15 15 15 15 16 16 17 17 18 19 20 20 21 22 22 23 23 24 24 25 26 26 27 28 29 29 29 30 30 30 29 29 28 28 27 26 26 26 24 23 24 24 25 26 26 26 28 30 30 30 32 32 32 32 34 37 39 39 39 39 38 38 38 37 37 36 36 35 34 34
19 19 19 20 20 19 17 16 14 12 11 10 11 13 13 13 14 14 14 14 15 15 16 16 16 17 17 18 19 20 20 18 17 16 17 18 19 21 22 23 24 24 24 24 24 25 25 26 26 26 25 25 25 24 22 21 21 23 24 25 26 26 26 27 30 33 34 34 33 32 31 30 31 32 34 34 35 35 36 36 36 35 34 34 33 32 32
18 18 19 18 18 16 15 14 12 10 10 11 12 12 12 12 13 13 13 14 15 15 15 15 14 14 15 17 18 16 13 10 9 10 12 15 17 17 17 17 17 16 16 16 17 17 18 19 20 21 21 21 21 19 19 19 21 23 24 24 24 24 24 24 27 30 33 33 32 31 28 26 26 27 28 30 31 32 33 33 33 32 31 31 30 30 29
17 18 18 18 16 15 14 13 11 9 9 11 11 11 11 13 13 13 13 14 14 14 12 11 11 14 16 17 13 8 5 5 7 9 11 14 15 14 13 11 10 9 8 8 8 8 8 9 11 13 15 16 17 16 16 17 17 17 18 19 19 19 19 18 18 19 21 23 24 25 24 23 23 23 24 25 26 27 27 28 28 28 27 27 27 26 26
17 17 18 17 16 14 13 12 9 9 10 11 11 11 12 13 13 13 12 12 12 11 9 8 11 14 14 10 5 3 4 6 8 10 12 13 13 11 9 8 8 7 6 5 4 3 2 3 5 7 9 11 12 11 11 10 10 10 11 11 12 13 12 11 10 9 10 12 13 15 15 15 15 16 17 18 18 19 20 20 21 21 22 22 23 23 23
17 17 17 16 15 14 12 11 9 9 10 10 10 11 12 13 12 12 11 9 9 7 6 7 11 12 9 4 2 3 5 7 8 9 11 12 12 11 10 9 9 9 8 7 6 3 1 1 3 5 5 6 6 6 6 6 6 7 8 8 9 9 8 7 8 9 9 8 7 7 8 9 9 10 11 11 12 13 13 13 14 14 15 16 17 17 17
16 17 17 16 14 13 12 10 10 11 11 11 11 12 12 11 11 10 9 7 6 4 4 6 9 9 4 1 2 5 7 7 6 6 9 12 13 14 15 15 14 14 15 14 13 11 10 8 8 8 8 7 7 7 6 6 6 6 6 6 5 4 4 6 8 8 7 7 6 7 9 11 11 11 12 13 14 15 15 15 14 14 14 15 15 14 15
16 16 16 15 14 12 11 11 11 12 12 12 12 12 11 10 9 8 7 7 6 3 3 5 8 7 6 4 4 6 8 6 4 4 7 9 11 12 14 15 15 16 16 15 15 15 15 14 13 12 11 10 9 7 6 5 5 5 5 4 3 3 5 7 8 9 9 9 9 10 12 13 13 13 14 14 15 15 15 16 16 16 15 16 16 17 17
15 15 16 15 13 12 11 11 11 12 12 11 11 10 10 8 7 7 7 8 6 4 3 3 6 8 8 8 8 9 9 6 4 4 4 6 7 8 9 10 10 11 11 11 11 12 13 13 13 13 12 10 9 7 7 6 5 5 4 4 4 6 9 12 13 14 14 14 13 12 12 13 13 13 13 13 13 14 14 15 16 17 17 17 17 18 18
14 14 15 14 13 11 11 11 10 10 10 9 8 8 7 6 6 6 7 6 4 4 3 2 5 7 8 9 10 11 11 8 5 3 3 4 4 4 4 6 7 8 9 11 13 15 15 15 15 15 16 15 14 13 11 9 7 7 6 6 7 9 11 13 14 14 14 13 11 10 10 11 11 11 11 11 10 11 12 14 16 16 17 17 17 17 17
14 14 14 14 13 11 11 11 10 10 9 8 7 6 6 5 5 6 5 4 2 2 2 2 2 4 6 8 9 10 10 9 7 5 4 4 4 5 7 9 11 13 16 17 18 19 18 18 18 18 18 18 19 19 18 16 14 14 13 14 14 14 14 14 14 13 12 10 8 8 8 8 8 8 8 9 9 10 11 13 15 16 16 17 17 17 18
14 14 14 14 13 12 11 11 11 10 9 7 6 6 5 4 5 5 5 4 2 2 2 2 1 1 3 6 7 8 8 8 9 10 11 11 12 13 14 14 14 15 16 16 17 17 18 18 18 17 17 17 17 18 19 18 18 17 17 17 18 18 17 16 15 13 12 10 9 7 7 6 5 5 6 7 8 9 10 12 14 16 17 17 18 18 18
15 14 14 14 13 12 12 11 11 11 10 8 7 6 5 5 5 6 5 3 2 2 2 2 2 1 2 4 5 5 5 7 10 11 12 13 14 14 14 14 14 14 14 14 14 15 16 17 17 16 14 14 14 15 16 16 16 16 16 16 16 17 16 15 14 13 12 11 9 8 8 6 5 4 4 4 5 7 9 11 13 14 16 17 18 19 19
16 15 14 13 13 13 13 12 12 11 10 8 7 7 6 6 6 6 5 3 2 2 1 2 2 2 2 3 4 4 5 7 9 9 10 10 11 11 12 12 12 13 12 12 12 13 13 13 13 12 11 11 11 11 12 12 12 13 13 12 13 13 13 13 13 12 11 11 10 10 9 7 6 5 4 3 4 5 7 9 10 11 12 13 14 16 17
16 15 14 13 13 14 14 13 12 12 11 9 8 8 8 7 7 7 6 4 4 3 3 2 3 3 3 2 3 4 5 7 8 8 8 8 9 9 9 9 9 9 9 8 8 8 8 8 8 8 7 7 8 9 9 9 9 9 9 9 9 10 10 10 10 10 10 10 10 10 9 8 6 5 4 4 3 4 5 6 7 7 8 10 12 13 14
16 16 15 14 14 14 15 15 14 13 11 10 9 9 9 8 8 7 6 5 5 5 5 4 5 5 5 4 5 5 6 7 8 9 9 9 9 9 9 9 8 7 7 6 6 5 5 6 6 6 7 7 8 9 9 9 8 8 8 9 9 9 9 9 8 8 7 7 7 7 7 7 6 5 5 4 3 3 4 5 5 6 7 9 10 12 13
16 16 16 15 14 15 16 16 15 14 13 11 11 11 11 10 9 8 8 7 7 7 7 7 7 8 8 8 7 7 8 9 10 10 10 11 10 10 10 11 11 11 11 10 10 9 9 9 10 10 10 10 11 11 11 10 10 10 10 9 9 10 10 9 9 8 7 7 6 5 5 4 4 3 3 3 2 2 2 3 5 6 8 9 11 12 12
16 16 17 17 16 15 16 17 17 16 15 13 12 12 12 12 11 10 10 10 10 10 10 10 10 10 11 11 11 10 10 10 10 11 12 12 12 12 11 11 11 12 12 11 11 11 10 10 10 10 10 10 10 10 10 9 9 9 8 8 8 8 8 8 8 8 7 7 6 6 5 4 3 2 0 0 1 2 2 3 5 6 8 9 11 12 13
18 17 17 17 17 16 17 18 19 19 18 16 14 13 13 14 13 13 12 12 13 13 13 13 12 13 13 13 13 13 13 12 11 11 12 13 13 12 12 11 10 10 9 8 8 8 8 7 7 7 6 6 6 6 6 6 6 6 5 5 5 5 5 5 5 5 5 5 4 4 4 4 3 3 2 2 3 3 4 5 6 7 8 9 10 11 13
19 18 18 18 18 18 18 18 20 21 20 18 16 15 15 15 15 16 15 15 16 16 17 16 16 16 15 15 14 14 14 14 13 13 12 12 12 12 11 11 10 9 8 7 6 5 4 4 3 3 2 2 2 2 2 3 3 3 4 4 4 4 4 4 4 4 4 4 5 5 5 5 6 6 6 6 6 6 6 7 8 9 10 11 12 13 14
20 19 19 18 18 18 19 20 20 21 22 21 19 17 16 16 17 18 18 19 19 19 19 19 18 18 18 17 17 16 15 15 14 14 13 12 11 10 10 9 9 8 8 7 6 5 4 3 2 2 2 2 3 3 4 4 4 5 5 6 6 6 7 7 7 7 8 8 8 9 9 9 10 10 10 11 11 11 11 12 12 13 13 14 14 15 16
20 20 19 19 18 18 19 20 21 21 22 23 22 20 19 19 19 19 20 21 21 21 21 21 21 21 20 19 19 18 17 15 14 13 13 12 12 11 10 9 8 8 8 8 7 6 5 5 5 5 5 6 7 8 8 9 9 9 10 10 10 11 11 11 12 12 13 13 13 14 14 15 15 15 15 15 16 16 17 17 18 18 19 19 19 20 20
Wind_Direction
249 249 249 247 243 241 242 243 241 236 235 238 241 241 242 245 250 254 255 256 257 257 257 257 259 260 262 264 265 266 267 268 270 270 269 268 267 266 266 266 267 267 267 266 264 265 265 263 260 260 263 269 274 277 276 273 268 263 262 264 265 267 273 279 279 278 276 274 274 280 284 280 273 270 264 262 267 270 268 267 269 270 272 272 272 271 269
252 252 250 248 246 245 246 247 245 242 240 239 240 243 247 250 254 255 256 257 258 259 260 261 260 261 261 263 265 266 267 268 269 269 269 268 268 266 264 263 263 263 264 264 264 264 263 262 261 260 260 262 265 271 277 274 263 256 257 261 263 267 273 276 277 277 278 278 278 280 282 281 277 272 267 266 268 269 267 267 269 270 270 269 268 270 272
252 252 251 248 245 243 244 245 244 242 241 240 238 243 251 256 258 260 260 261 262 264 265 267 267 267 266 266 266 266 266 266 267 268 269 270 270 268 265 262 262 262 264 266 267 267 265 263 262 262 262 261 260 263 271 270 258 255 259 261 263 268 272 275 277 277 278 278 278 279 280 280 279 274 269 266 265 265 265 267 269 270 270 269 269 269 270
252 253 253 251 248 245 244 245 247 247 247 249 251 256 262 265 266 267 266 266 267 267 268 269 270 270 270 270 269 268 267 266 266 266 266 267 269 269 267 265 264 263 264 267 270 271 270 268 267 266 265 266 265 265 266 265 260 260 262 263 265 268 271 273 275 276 277 277 277 277 277 277 276 275 271 268 264 262 263 265 268 269 270 269 269 269 269
254 254 255 256 256 255 253 253 255 258 260 263 265 268 270 271 271 270 268 266 266 265 265 266 267 268 268 269 268 268 268 267 267 267 266 265 265 267 268 268 268 268 268 271 272 272 271 270 269 267 266 266 267 268 267 266 265 265 266 266 267 268 270 272 273 274 275 275 274 275 275 274 273 271 269 267 264 261 260 262 264 265 266 266 266 267 270
257 259 260 261 260 259 259 260 262 264 265 266 268 269 270 271 270 269 266 264 263 262 261 261 262 264 265 265 266 267 267 268 269 270 269 268 267 268 268 270 271 272 274 277 277 275 273 270 268 267 266 265 265 265 265 265 265 266 267 267 268 269 270 271 272 272 272 271 271 272 272 270 268 266 265 264 262 260 259 259 261 262 263 264 265 267 269
260 261 262 262 261 261 262 262 263 264 265 266 266 267 268 269 269 267 265 263 260 259 258 258 259 260 261 263 264 265 266 267 268 268 268 269 269 270 271 272 273 274 276 278 278 276 273 271 270 270 269 267 265 263 262 262 262 262 263 264 265 266 268 269 270 270 269 268 268 268 267 265 266 267 266 265 264 263 263 264 266 267 267 267 267 268 269
262 262 261 261 262 263 263 263 264 265 265 265 266 266 267 268 268 267 265 263 260 257 255 255 255 256 258 259 260 262 262 263 263 264 265 266 268 270 271 272 272 272 270 269 270 271 271 271 270 269 268 267 265 262 261 260 260 260 262 263 264 263 264 266 268 270 269 268 268 268 267 267 269 269 268 268 268 268 268 270 271 271 271 271 271 270 270
262 261 261 262 262 262 263 264 265 266 266 266 265 265 266 266 266 265 264 263 261 259 256 254 254 254 255 256 256 257 259 260 261 262 264 265 267 268 268 269 269 268 266 264 264 266 266 265 263 262 263 263 263 262 260 257 256 258 260 262 263 263 265 268 269 269 268 267 268 269 269 270 270 270 269 270 270 271 272 272 273 273 273 272 272 272 272
260 260 260 261 262 262 263 264 264 264 264 264 263 264 264 264 264 263 263 262 261 259 258 256 255 255 255 256 256 256 257 258 259 260 261 263 264 265 265 265 265 265 264 262 260 259 259 259 259 260 261 262 263 261 257 251 250 255 258 259 261 264 267 269 268 266 267 266 264 265 265 265 266 266 267 268 269 270 270 271 271 272 272 272 272 271 271
260 260 261 261 261 262 262 262 263 263 263 263 263 263 264 264 264 263 263 262 261 260 258 257 257 256 256 256 256 257 257 258 258 259 260 260 261 260 260 260 261 260 261 260 259 259 260 260 260 260 260 261 263 262 258 253 254 258 260 259 257 259 263 264 263 263 265 263 261 262 263 263 263 263 262 263 264 266 266 267 268 269 269 268 268 267 268
261 261 262 261 261 261 261 262 263 263 264 264 264 264 264 265 265 265 265 264 262 260 258 258 258 257 257 257 257 257 258 259 259 259 259 258 258 258 258 259 259 260 261 261 261 261 261 261 260 261 261 262 262 261 259 257 257 259 260 258 255 252 251 250 251 253 256 256 254 255 257 259 261 262 262 261 262 264 265 266 267 267 267 266 264 263 265
259 260 261 261 262 262 263 263 263 264 265 265 266 266 267 267 266 265 264 262 261 260 260 259 258 257 257 258 258 258 258 258 258 258 258 258 258 258 258 259 259 260 260 261 262 262 262 262 261 260 259 258 258 258 259 259 258 258 259 258 257 254 249 247 247 248 248 249 248 247 248 251 254 258 261 263 264 265 266 267 267 267 268 267 265 264 266
255 257 258 260 261 262 263 264 264 265 266 267 268 268 267 265 264 263 262 261 260 259 257 255 253 251 250 251 253 253 252 253 254 254 255 257 257 258 258 259 260 260 260 260 261 261 261 260 259 257 255 255 255 256 257 259 259 259 260 260 260 258 254 251 250 250 250 250 251 250 251 252 253 255 258 262 264 266 268 269 268 268 269 269 268 269 271
252 253 255 257 259 261 262 263 265 266 266 267 267 267 266 265 264 262 262 263 262 260 256 253 252 249 245 244 245 246 247 249 251 252 253 255 256 257 257 258 258 259 259 259 259 260 259 258 258 258 257 257 257 256 256 257 258 259 260 261 261 260 258 255 255 255 255 255 257 258 258 258 257 257 259 261 264 266 268 270 270 269 269 270 271 272 274
251 252 253 255 257 258 258 259 261 262 262 262 262 263 264 264 262 259 258 258 258 257 255 255 254 253 249 247 247 248 249 251 253 254 255 255 255 256 257 257 256 256 257 259 260 261 261 261 260 260 259 259 259 259 259 259 259 259 260 260 260 260 260 259 259 259 259 260 262 263 264 263 262 261 262 263 265 267 268 269 270 270 270 271 272 273 274
252 252 253 254 255 257 258 259 259 258 257 256 256 257 258 258 257 257 257 257 257 257 257 258 258 256 254 253 253 253 254 255 255 256 257 257 257 258 258 258 259 259 259 260 261 262 262 262 262 262 261 261 261 261 261 261 261 261 261 262 262 261 261 260 260 261 262 263 265 266 266 266 266 265 266 266 267 268 269 270 270 271 271 271 272 272 273
255 253 252 251 251 251 251 251 252 252 251 251 251 252 252 252 252 253 254 255 257 258 259 259 260 259 258 257 258 259 259 259 258 258 258 259 260 260 261 262 263 263 263 263 263 263 262 262 262 262 263 263 263 263 263 263 263 263 263 262 262 261 261 261 261 261 261 262 263 264 265 266 266 266 267 268 269 270 270 271 271 272 272 272 273 273 273
256 255 253 251 250 248 247 245 244 244 245 246 247 249 249 250 250 250 250 251 253 254 255 255 257 258 259 259 260 261 262 262 262 261 261 261 261 262 263 264 264 265 265 265 264 264 263 262 262 263 263 264 264 264 263 263 263 263 264 264 264 263 263 263 263 263 263 262 262 262 263 263 264 265 265 266 267 268 269 270 271 272 272 273 273 273 273
258 257 256 254 254 253 251 250 249 249 249 249 250 250 251 251 251 251 252 253 254 255 256 257 258 260 262 263 264 265 266 267 267 267 266 265 264 264 264 264 264 263 263 263 263 262 262 262 262 262 263 264 264 264 264 263 263 263 263 264 265 265 265 265 265 264 264 263 263 262 262 262 263 264 264 265 265 266 267 268 269 270 271 272 272 272 272
259 258 259 259 258 257 256 256 256 256 256 256 255 255 255 256 256 256 256 257 258 259 260 260 261 263 264 266 267 267 268 269 269 269 269 269 268 268 268 268 267 266 265 264 263 262 262 262 262 262 262 263 263 264 264 264 264 264 264 264 264 265 265 266 266 266 265 265 264 264 263 263 263 263 264 264 264 265 266 267 268 269 269 270 270 270 271
260 259 259 259 259 259 259 259 260 260 260 260 261 261 261 261 261 262 262 263 263 263 263 264 265 265 266 267 267 268 268 269 269 269 269 269 269 269 269 269 269 268 268 268 267 266 265 265 264 263 263 263 264 264 264 265 265 266 266 265 265 265 265 265 265 266 266 266 266 266 265 265 264 264 263 263 264 264 265 266 266 267 267 267 268 268 269
265 264 264 264 264 264 264 264 264 265 265 265 265 265 265 265 266 266 267 267 268 268 268 269 269 269 269 269 269 269 269 269 269 269 269 269 268 268 268 267 266 266 266 266 266 266 266 266 266 266 265 265 265 265 265 265 265 265 266 266 266 265 265 265 265 265 265 265 266 265 265 265 265 265 265 264 264 264 264 263 263 263 264 265 266 267 267
274 273 273 273 273 273 272 272 271 271 270 270 270 269 269 270 270 270 270 270 271 272 272 272 272 272 272 272 272 272 272 272 272 271 271 270 270 269 268 268 267 266 266 265 265 264 264 264 264 264 264 264 264 264 263 264 264 264 264 264 265 265 265 264 264 264 264 264 264 264 264 265 265 265 266 266 266 265 263 262 261 261 262 263 263 264 264
280 280 280 279 278 278 277 276 275 274 274 274 274 274 274 274 274 274 274 274 274 275 275 276 276 276 276 276 276 276 276 276 275 274 274 274 273 272 272 271 270 269 268 267 266 265 264 263 262 262 262 262 261 261 261 261 261 261 262 262 262 262 263 263 262 262 261 261 262 262 263 263 264 265 266 266 266 265 264 263 261 260 259 260 260 261 262
284 284 284 283 281 281 280 279 278 278 277 277 277 277 277 277 277 277 277 278 278 279 279 279 279 279 279 279 279 279 279 279 279 278 278 278 277 276 274 273 272 271 270 268 267 266 265 263 262 262 261 261 260 260 260 260 260 260 260 260 260 260 260 260 260 260 259 259 260 260 261 262 263 264 264 265 265 265 264 263 261 260 259 259 259 259 260
286 286 286 285 285 284 283 282 282 281 280 280 279 278 278 278 278 279 279 279 280 280 280 281 281 282 282 282 282 283 283 283 283 283 282 280 278 276 275 274 273 273 271 270 268 267 265 264 262 261 261 260 260 260 260 260 260 260 260 259 259 258 259 259 259 259 258 258 258 259 260 260 261 261 262 263 263 263 263 263 262 261 260 259 259 259 259
288 288 289 288 288 287 286 285 284 282 281 280 279 279 279 279 280 280 280 281 281 282 283 284 285 286 287 288 288 289 288 288 286 285 282 281 280 280 279 279 278 277 275 273 271 269 267 264 262 261 260 260 260 260 261 261 260 260 260 260 259 259 259 260 261 261 261 259 258 258 258 258 258 259 259 260 261 261 262 262 261 261 260 259 259 259 258
291 291 292 292 291 291 290 288 286 285 284 283 282 282 281 281 282 283 284 285 286 286 286 286 287 289 290 290 291 291 290 288 286 284 283 282 282 282 281 279 278 276 275 273 272 270 269 266 264 261 259 258 259 261 262 261 261 260 259 259 259 257 253 250 250 254 257 258 257 256 255 255 255 256 256 257 258 259 260 260 260 260 259 259 259 258 258
293 294 296 296 295 294 292 291 290 290 288 285 283 284 284 286 289 291 294 296 295 294 292 292 292 292 292 292 291 289 287 285 285 284 284 284 283 282 281 279 277 274 272 271 270 269 268 266 264 260 257 257 258 260 261 261 260 258 258 258 258 255 249 244 240 242 249 255 256 256 255 253 252 252 253 254 255 257 257 258 258 258 258 257 257 257 257
297 299 300 300 298 297 296 296 297 294 288 284 285 289 291 292 294 296 300 303 304 304 302 299 298 298 297 294 290 288 287 288 289 289 290 290 289 287 284 281 278 276 274 272 270 268 266 263 260 258 255 254 254 255 257 258 257 255 255 255 254 253 253 248 241 239 244 250 253 256 257 253 250 249 249 250 252 254 254 255 255 256 255 255 255 255 256
299 301 303 303 302 300 300 302 301 294 283 282 289 291 291 291 294 297 302 307 309 308 305 303 302 302 300 295 293 293 294 296 298 300 302 300 297 292 289 285 281 278 277 276 274 269 264 259 255 252 249 247 247 250 253 254 252 250 250 250 250 252 254 251 243 239 242 247 252 258 261 257 250 246 246 247 248 249 250 251 252 252 252 253 253 253 253
301 303 305 305 303 301 302 304 300 287 279 285 291 290 288 292 297 300 304 307 308 306 305 305 307 305 302 300 300 302 303 305 313 321 322 317 310 304 300 298 291 284 281 283 280 273 264 255 249 246 244 241 240 242 243 244 246 248 250 251 252 254 255 254 249 245 246 249 252 255 256 252 246 243 242 242 243 245 246 247 248 249 249 249 250 250 250
302 305 307 306 303 301 302 303 296 283 283 292 294 290 289 295 301 303 303 304 305 305 307 310 311 310 308 307 306 307 310 321 332 337 337 334 328 323 320 320 318 309 301 301 296 286 270 254 243 239 236 233 233 236 241 248 254 257 257 256 255 253 251 250 250 248 248 247 247 246 244 241 239 237 236 237 238 240 242 243 244 245 246 245 245 245 245
304 306 307 305 301 298 301 302 293 283 287 294 293 291 294 297 299 301 303 306 308 310 311 316 319 318 315 310 301 300 323 340 350 352 350 351 352 352 354 358 0 360 358 354 344 327 288 246 229 226 226 229 235 244 251 257 259 256 250 246 242 236 232 234 243 252 252 247 241 236 232 230 229 229 230 230 231 232 234 237 238 238 238 237 235 234 232
304 305 305 302 297 295 301 303 291 280 283 288 290 295 298 297 295 299 306 313 316 315 313 323 328 328 324 309 293 339 354 2 9 10 12 18 25 31 36 38 38 40 41 37 31 26 14 210 205 207 210 212 216 221 222 222 222 219 215 213 212 213 221 241 263 272 269 257 241 222 205 199 203 209 208 202 198 198 203 205 205 208 211 210 209 209 204
302 303 303 300 295 292 297 298 286 276 276 279 287 299 304 300 295 298 307 321 329 321 313 330 341 347 348 333 347 7 11 16 26 40 48 55 58 60 63 66 68 70 71 70 69 71 77 87 100 111 120 129 138 151 164 176 186 190 190 191 198 220 251 260 259 253 243 228 213 195 181 175 173 169 161 157 160 164 167 166 166 169 171 172 174 179 182
299 301 301 298 292 289 290 289 281 275 274 275 285 300 308 304 297 300 316 334 338 316 295 330 355 16 34 39 28 21 22 32 69 87 77 73 74 76 80 83 83 83 84 85 85 86 86 87 89 93 99 105 112 118 121 128 141 152 156 158 171 195 204 197 183 169 156 147 145 148 151 150 148 145 143 145 150 155 158 161 166 169 170 171 177 184 187
295 298 298 295 288 283 284 283 279 275 272 273 284 300 306 302 303 313 323 325 313 274 262 331 10 31 42 43 38 30 30 44 84 106 95 92 92 90 92 91 87 85 89 93 95 95 94 89 87 88 89 91 97 107 115 121 129 133 135 146 164 167 158 148 139 130 121 116 116 122 129 133 136 138 141 144 147 153 160 169 174 176 177 180 185 188 186
292 294 295 291 284 278 278 280 280 277 274 276 287 297 296 299 310 312 303 293 273 238 242 326 16 40 48 49 47 41 38 43 59 85 112 125 126 115 101 89 79 79 88 95 97 97 95 92 91 91 90 88 88 90 93 101 113 120 123 133 144 143 134 124 118 115 114 116 120 127 134 139 144 148 149 151 156 164 174 182 184 184 186 188 190 190 191
288 289 290 287 280 273 273 278 282 280 277 282 289 287 281 290 303 289 266 251 236 227 253 301 7 51 63 64 61 55 49 48 54 65 85 104 103 92 85 83 83 88 93 96 97 98 98 98 97 95 93 92 91 90 89 91 98 104 108 112 114 113 109 106 105 106 109 113 118 124 133 142 152 161 166 172 180 188 193 195 195 195 197 198 198 198 200
285 285 286 284 277 269 267 274 279 278 277 283 285 274 263 272 280 263 237 220 222 245 252 267 288 77 89 83 75 68 65 67 70 75 80 83 84 83 84 84 85 89 95 99 100 100 99 98 93 86 81 80 82 84 85 88 92 97 101 104 104 103 100 100 101 101 100 99 99 102 110 120 135 154 171 185 194 202 206 205 202 201 200 200 200 200 202
283 281 282 281 274 264 261 266 272 273 273 276 274 259 246 249 255 243 224 214 235 254 247 248 253 223 137 109 95 90 93 94 90 86 85 86 86 87 87 85 83 84 88 93 95 94 95 94 91 85 79 75 72 71 72 74 79 84 90 97 102 104 104 103 102 100 99 98 99 100 102 104 108 119 143 171 186 193 198 199 199 198 198 197 196 197 199
282 279 277 276 270 261 254 256 262 266 266 267 263 249 236 236 240 237 232 241 269 274 239 219 222 211 168 134 119 118 119 114 107 100 96 95 95 94 93 92 92 91 91 89 86 86 88 90 90 88 85 80 75 71 67 65 65 68 72 80 88 94 97 99 101 101 100 100 101 101 102 103 106 112 125 147 167 175 179 183 187 191 194 195 196 197 197
280 276 273 271 267 259 251 248 253 257 258 256 253 243 232 229 230 230 232 247 268 273 257 225 202 195 194 179 159 148 137 124 116 111 108 104 103 102 102 103 105 106 106 103 98 92 88 86 87 87 83 77 75 76 76 72 68 64 63 67 73 80 85 89 91 91 92 94 95 95 96 98 101 108 119 135 149 154 156 162 170 182 191 197 199 200 201
278 274 270 267 264 257 249 243 244 248 249 248 245 238 230 224 222 222 224 235 250 257 253 238 216 203 200 195 183 169 155 141 132 126 120 114 110 110 110 111 115 121 126 128 125 115 102 96 96 95 91 87 87 89 90 86 81 76 73 71 72 74 79 81 82 82 85 88 90 90 91 92 90 92 102 116 132 146 157 166 177 187 194 199 203 205 206
277 274 269 264 260 255 248 241 238 240 242 241 239 236 230 223 218 216 217 223 231 236 235 231 223 212 200 190 183 176 164 151 143 136 130 125 122 120 119 117 118 120 122 120 116 111 106 102 100 98 94 92 92 92 91 89 86 83 81 78 75 73 73 73 72 70 69 69 69 70 73 74 73 78 91 103 111 134 173 191 201 208 211 214 216 218 219
275 273 269 264 259 254 247 239 235 234 235 235 234 234 230 223 217 215 216 220 224 226 226 226 223 216 204 193 185 180 173 163 153 144 137 133 130 127 124 121 118 117 116 115 112 110 106 102 99 97 95 94 92 91 90 88 86 84 81 77 73 70 66 63 61 59 57 53 50 46 42 39 39 36 34 201 217 229 229 225 225 225 226 227 229 231 232
275 272 268 264 259 254 247 240 234 231 230 230 230 230 229 225 220 216 216 220 223 224 224 225 224 222 216 206 195 186 180 177 171 161 151 144 141 138 134 130 126 121 118 116 115 115 114 111 107 102 97 91 86 82 78 75 73 70 66 62 57 51 46 41 36 33 27 22 19 14 8 3 357 347 328 299 271 257 250 245 242 239 238 238 239 240 240
274 272 267 263 258 253 249 242 236 231 229 229 227 226 227 227 224 220 218 219 222 224 226 226 225 224 223 220 211 200 191 186 185 180 172 163 160 158 155 152 150 147 143 142 141 138 135 132 126 120 114 104 86 61 44 33 26 22 19 15 10 6 1 355 349 342 335 328 321 315 309 304 300 296 291 286 281 274 268 263 258 253 250 249 248 247 248
270 270 268 264 260 255 250 245 240 235 230 228 226 224 224 227 228 226 222 221 222 224 228 231 230 227 225 225 223 217 209 202 198 197 192 188 187 186 184 182 181 180 178 177 177 179 185 198 222 251 270 281 288 294 300 305 309 314 317 318 318 317 316 314 312 310 307 303 300 296 292 288 284 281 277 274 272 269 268 266 264 261 258 257 255 255 254
268 269 269 268 264 258 252 248 244 239 232 227 225 224 224 226 228 228 227 225 223 224 228 231 232 231 229 228 227 227 223 219 216 216 216 215 215 216 215 215 216 216 216 215 215 219 227 239 257 273 286 294 299 302 304 306 308 309 309 310 309 308 307 306 305 303 301 298 295 293 289 286 283 280 276 273 270 267 265 263 262 261 260 259 259 258 258
Height
5657 5658 5659 5660 5661 5662 5663 5664 5665 5666 5667 5669 5671 5672 5673 5674 5676 5678 5679 5680 5681 5682 5684 5685 5686 5686 5686 5687 5687 5688 5689 5689 5690 5691 5692 5693 5694 5694 5695 5695 5696 5696 5696 5697 5697 5698 5698 5699 5700 5701 5701 5702 5701 5701 5702 5701 5702 5702 5703 5703 5704 5705 5707 5708 5709 5710 5711 5711 5711 5712 5712 5712 5713 5713 5713 5713 5713 5714 5714 5715 5716 5716 5717 5717 5717 5718 5718
5654 5655 5656 5656 5657 5659 5660 5661 5662 5662 5663 5665 5667 5668 5670 5671 5673 5674 5675 5676 5677 5678 5679 5680 5681 5682 5682 5683 5684 5684 5685 5686 5686 5687 5687 5688 5690 5691 5691 5691 5692 5692 5692 5692 5693 5693 5694 5695 5695 5696 5697 5697 5697 5698 5698 5698 5698 5698 5698 5699 5700 5700 5702 5703 5704 5705 5706 5706 5707 5707 5708 5709 5709 5710 5710 5709 5710 5710 5710 5711 5712 5713 5714 5714 5714 5714 5714
5650 5652 5653 5653 5654 5655 5657 5658 5659 5660 5661 5662 5663 5665 5666 5668 5669 5670 5671 5672 5673 5674 5675 5675 5676 5677 5678 5679 5679 5680 5681 5681 5682 5682 5683 5684 5685 5685 5686 5686 5687 5688 5688 5688 5688 5689 5690 5690 5691 5691 5692 5693 5693 5694 5694 5694 5694 5694 5694 5694 5695 5696 5697 5698 5698 5700 5700 5701 5702 5703 5703 5704 5704 5705 5705 5705 5706 5706 5707 5707 5708 5709 5709 5710 5710 5710 5710
5647 5648 5649 5649 5650 5651 5652 5654 5655 5656 5657 5658 5660 5661 5662 5663 5665 5666 5667 5668 5669 5670 5670 5670 5671 5671 5672 5673 5673 5674 5675 5676 5676 5677 5678 5678 5679 5680 5680 5681 5682 5683 5683 5684 5684 5684 5685 5686 5686 5687 5687 5688 5688 5689 5689 5690 5690 5690 5690 5690 5690 5691 5692 5692 5693 5694 5694 5695 5696 5697 5698 5699 5699 5699 5699 5700 5700 5701 5702 5702 5703 5704 5704 5705 5705 5705 5705
5642 5643 5644 5644 5645 5646 5648 5650 5651 5652 5653 5654 5655 5656 5657 5658 5659 5660 5662 5662 5663 5664 5665 5665 5665 5666 5666 5667 5667 5668 5668 5669 5670 5671 5672 5673 5673 5674 5674 5675 5676 5677 5678 5678 5679 5679 5680 5680 5681 5682 5682 5683 5683 5683 5683 5684 5684 5684 5685 5685 5685 5686 5686 5687 5688 5689 5689 5689 5690 5691 5692 5693 5693 5694 5694 5695 5695 5696 5697 5697 5698 5699 5699 5700 5700 5700 5700
5638 5638 5639 5639 5639 5641 5643 5645 5646 5647 5648 5649 5650 5651 5651 5652 5654 5655 5656 5656 5657 5658 5658 5659 5659 5660 5660 5661 5661 5662 5663 5664 5664 5664 5665 5666 5667 5668 5668 5669 5670 5671 5671 5673 5673 5674 5674 5675 5675 5676 5676 5677 5677 5678 5678 5678 5679 5679 5680 5680 5680 5680 5681 5682 5682 5683 5684 5684 5685 5685 5686 5687 5688 5689 5689 5690 5690 5691 5691 5692 5692 5693 5694 5694 5694 5694 5694
5633 5633 5634 5633 5634 5637 5640 5640 5641 5643 5643 5644 5645 5645 5646 5647 5648 5649 5650 5651 5651 5652 5652 5653 5653 5654 5654 5655 5656 5656 5657 5658 5659 5659 5659 5660 5661 5662 5662 5663 5664 5665 5666 5667 5667 5667 5667 5668 5669 5670 5670 5671 5672 5672 5673 5673 5673 5673 5674 5674 5675 5675 5675 5675 5676 5677 5678 5678 5679 5680 5680 5681 5682 5682 5683 5683 5684 5684 5684 5684 5685 5685 5686 5687 5687 5688 5688
5628 5628 5628 5628 5630 5633 5635 5635 5636 5638 5638 5639 5640 5640 5641 5642 5642 5643 5644 5645 5646 5646 5647 5647 5648 5648 5649 5649 5650 5651 5652 5652 5653 5654 5654 5655 5656 5656 5657 5657 5658 5660 5662 5662 5661 5661 5662 5663 5664 5664 5664 5665 5665 5666 5667 5667 5666 5667 5667 5668 5668 5668 5669 5669 5670 5670 5671 5671 5671 5672 5673 5673 5674 5674 5675 5675 5676 5676 5676 5676 5677 5677 5678 5679 5680 5681 5682
5622 5623 5623 5624 5625 5628 5629 5630 5631 5633 5633 5634 5634 5635 5636 5637 5637 5637 5638 5639 5640 5641 5641 5642 5642 5643 5644 5644 5644 5645 5646 5646 5647 5648 5649 5649 5650 5651 5651 5651 5652 5653 5655 5656 5656 5655 5656 5657 5657 5657 5657 5658 5658 5659 5660 5660 5661 5661 5662 5662 5662 5662 5663 5664 5663 5663 5663 5663 5664 5664 5665 5666 5666 5667 5667 5668 5668 5669 5669 5670 5670 5670 5671 5672 5673 5674 5674
5617 5618 5618 5619 5620 5622 5624 5625 5626 5627 5628 5628 5629 5630 5630 5631 5632 5633 5633 5634 5635 5635 5636 5636 5637 5637 5638 5638 5639 5640 5640 5641 5642 5642 5643 5644 5644 5644 5644 5645 5645 5646 5647 5648 5649 5649 5650 5651 5650 5651 5651 5652 5652 5653 5654 5655 5655 5656 5656 5657 5657 5658 5659 5659 5658 5658 5658 5658 5658 5659 5659 5660 5660 5661 5662 5662 5663 5663 5663 5664 5664 5664 5665 5665 5666 5667 5667
5611 5612 5612 5613 5615 5617 5618 5619 5620 5621 5622 5622 5623 5624 5625 5626 5627 5628 5629 5629 5630 5630 5630 5631 5631 5631 5632 5633 5633 5634 5634 5635 5635 5636 5636 5637 5637 5637 5638 5638 5638 5638 5639 5639 5640 5641 5643 5644 5644 5644 5645 5646 5646 5647 5648 5648 5648 5649 5649 5651 5653 5654 5654 5654 5653 5653 5652 5652 5652 5653 5654 5654 5655 5656 5657 5657 5658 5658 5658 5658 5658 5659 5659 5659 5660 5660 5661
5605 5606 5606 5607 5609 5611 5612 5614 5614 5615 5615 5616 5617 5618 5619 5621 5621 5622 5623 5623 5623 5624 5624 5624 5625 5626 5626 5626 5627 5627 5628 5628 5629 5629 5629 5629 5629 5630 5630 5630 5630 5630 5631 5631 5632 5633 5635 5636 5636 5637 5638 5638 5639 5639 5639 5639 5640 5640 5641 5643 5646 5647 5647 5647 5647 5647 5646 5646 5646 5647 5648 5648 5648 5649 5650 5651 5651 5652 5652 5652 5653 5653 5653 5654 5654 5655 5655
5600 5600 5600 5601 5603 5604 5606 5608 5608 5608 5609 5609 5610 5612 5614 5614 5614 5615 5615 5616 5616 5616 5617 5617 5618 5619 5620 5620 5620 5620 5621 5620 5621 5621 5621 5621 5621 5622 5622 5622 5622 5623 5623 5623 5624 5625 5626 5627 5628 5629 5630 5630 5630 5629 5630 5631 5632 5632 5633 5635 5637 5639 5640 5640 5640 5640 5640 5640 5640 5640 5641 5641 5641 5642 5642 5643 5644 5644 5645 5646 5646 5647 5647 5648 5648 5649 5649
5595 5595 5595 5596 5597 5598 5600 5601 5601 5602 5603 5603 5604 5606 5607 5607 5608 5608 5609 5609 5609 5610 5610 5611 5612 5613 5613 5613 5612 5613 5613 5613 5613 5613 5614 5614 5614 5614 5614 5615 5615 5615 5615 5615 5616 5617 5618 5618 5619 5620 5621 5622 5622 5622 5623 5624 5624 5624 5625 5627 5628 5630 5631 5632 5632 5633 5633 5633 5633 5634 5634 5635 5635 5635 5636 5636 5637 5637 5638 5639 5639 5640 5640 5641 5642 5642 5642
5590 5590 5591 5591 5592 5593 5595 5595 5595 5596 5597 5597 5598 5599 5600 5601 5602 5603 5603 5603 5603 5604 5604 5605 5605 5605 5606 5606 5606 5606 5606 5606 5606 5607 5607 5607 5607 5607 5607 5608 5608 5608 5608 5608 5608 5608 5609 5610 5610 5611 5612 5613 5614 5615 5616 5616 5617 5617 5618 5619 5619 5620 5622 5623 5624 5624 5625 5625 5625 5626 5627 5628 5629 5629 5629 5629 5630 5630 5631 5631 5632 5632 5633 5634 5634 5635 5635
5585 5586 5586 5586 5587 5588 5589 5590 5590 5590 5591 5592 5593 5594 5595 5595 5596 5597 5598 5598 5597 5598 5598 5598 5598 5598 5599 5599 5599 5600 5600 5600 5600 5600 5601 5601 5600 5600 5601 5601 5601 5601 5601 5601 5601 5601 5601 5601 5602 5603 5604 5605 5606 5607 5608 5608 5609 5610 5610 5611 5612 5612 5613 5614 5615 5615 5616 5616 5616 5617 5618 5619 5621 5621 5621 5621 5622 5622 5623 5623 5624 5625 5625 5626 5627 5628 5628
5580 5581 5581 5582 5582 5583 5584 5584 5585 5585 5586 5587 5588 5589 5590 5590 5590 5591 5591 5591 5591 5591 5591 5591 5592 5592 5592 5593 5593 5593 5593 5593 5593 5593 5593 5593 5593 5594 5594 5594 5594 5594 5595 5595 5595 5595 5595 5594 5594 5595 5596 5597 5598 5599 5599 5600 5600 5601 5602 5603 5604 5605 5606 5607 5607 5607 5608 5608 5608 5608 5609 5610 5611 5612 5612 5613 5613 5614 5615 5615 5616 5617 5618 5619 5620 5620 5621
5575 5576 5576 5577 5577 5578 5579 5580 5580 5580 5581 5582 5582 5583 5584 5584 5585 5585 5585 5584 5584 5584 5584 5585 5585 5585 5585 5586 5586 5586 5586 5586 5586 5587 5586 5586 5586 5586 5586 5586 5586 5586 5587 5587 5588 5589 5589 5588 5587 5587 5588 5588 5589 5590 5590 5591 5591 5592 5593 5595 5596 5597 5598 5598 5599 5600 5601 5601 5601 5601 5601 5602 5603 5604 5604 5604 5605 5605 5606 5607 5607 5608 5610 5611 5612 5613 5614
5570 5571 5571 5572 5572 5573 5574 5575 5575 5575 5576 5576 5576 5577 5578 5578 5578 5579 5579 5578 5578 5578 5578 5578 5578 5578 5578 5578 5578 5578 5579 5579 5579 5579 5579 5579 5578 5578 5578 5578 5578 5578 5578 5579 5579 5580 5581 5580 5580 5580 5580 5580 5581 5581 5581 5582 5582 5582 5583 5584 5586 5587 5588 5589 5590 5591 5592 5593 5594 5594 5594 5595 5595 5596 5597 5597 5598 5598 5598 5598 5599 5600 5601 5602 5603 5604 5606
5566 5566 5566 5567 5567 5568 5568 5569 5569 5570 5570 5571 5571 5571 5572 5572 5572 5572 5572 5572 5572 5572 5572 5572 5572 5571 5570 5570 5570 5570 5569 5569 5569 5570 5570 5569 5569 5569 5568 5568 5568 5568 5569 5569 5570 5570 5571 5571 5571 5571 5572 5571 5571 5571 5572 5572 5572 5573 5574 5575 5575 5576 5577 5578 5579 5581 5582 5583 5585 5586 5586 5587 5588 5588 5589 5590 5591 5591 5591 5591 5591 5592 5593 5594 5595 5596 5597
5561 5561 5562 5562 5563 5563 5563 5563 5563 5564 5564 5564 5565 5565 5565 5565 5565 5565 5565 5565 5565 5565 5564 5564 5564 5563 5562 5562 5562 5561 5560 5560 5560 5559 5559 5559 5559 5559 5558 5558 5558 5558 5558 5559 5559 5560 5561 5561 5561 5562 5562 5563 5562 5562 5562 5562 5561 5562 5564 5565 5566 5567 5567 5567 5568 5570 5571 5572 5574 5575 5576 5577 5579 5580 5581 5581 5582 5583 5583 5584 5584 5585 5586 5587 5587 5588 5589
5557 5557 5557 5558 5558 5558 5558 5558 5558 5558 5558 5558 5558 5558 5558 5558 5558 5558 5558 5557 5557 5557 5557 5556 5555 5555 5554 5554 5553 5553 5552 5551 5551 5550 5550 5550 5550 5549 5549 5549 5549 5548 5548 5548 5549 5550 5550 5550 5551 5552 5552 5553 5553 5552 5552 5552 5551 5552 5553 5554 5555 5557 5557 5558 5558 5559 5560 5562 5563 5564 5565 5567 5568 5570 5572 5573 5574 5575 5575 5576 5577 5577 5578 5579 5580 5580 5582
5554 5554 5554 5554 5554 5554 5554 5554 5554 5553 5553 5553 5552 5552 5552 5552 5551 5551 5551 5550 5549 5549 5548 5548 5547 5547 5546 5545 5545 5544 5543 5542 5542 5541 5541 5541 5541 5540 5539 5539 5539 5539 5539 5539 5539 5540 5540 5540 5540 5541 5542 5542 5542 5542 5542 5542 5542 5543 5543 5543 5544 5546 5547 5548 5549 5550 5551 5552 5553 5554 5555 5557 5558 5560 5562 5563 5565 5567 5567 5568 5569 5569 5570 5571 5572 5573 5575
5551 5551 5551 5550 5550 5550 5549 5549 5549 5548 5548 5547 5547 5546 5546 5545 5545 5544 5544 5543 5542 5541 5540 5540 5539 5538 5538 5537 5536 5535 5534 5533 5533 5532 5531 5531 5530 5530 5529 5529 5529 5529 5529 5529 5530 5530 5530 5530 5531 5531 5532 5532 5532 5531 5531 5532 5533 5534 5534 5534 5535 5536 5537 5538 5540 5541 5542 5543 5544 5545 5546 5548 5549 5551 5553 5554 5556 5558 5559 5560 5561 5562 5563 5564 5565 5566 5567
5548 5547 5547 5547 5546 5546 5545 5545 5544 5543 5543 5542 5541 5540 5540 5539 5538 5538 5537 5536 5535 5534 5533 5532 5531 5530 5529 5528 5527 5527 5525 5524 5523 5522 5522 5521 5520 5519 5519 5519 5518 5519 5519 5519 5519 5519 5519 5520 5521 5521 5522 5522 5521 5521 5521 5522 5523 5524 5525 5524 5525 5526 5527 5528 5530 5532 5533 5534 5535 5536 5538 5539 5541 5543 5545 5547 5548 5549 5551 5552 5553 5554 5556 5557 5558 5559 5560
5544 5544 5544 5543 5542 5541 5541 5540 5539 5539 5538 5537 5536 5535 5534 5533 5532 5531 5530 5529 5528 5527 5526 5524 5523 5522 5521 5520 5519 5518 5517 5516 5514 5513 5513 5512 5511 5510 5509 5509 5508 5508 5508 5508 5508 5508 5508 5509 5510 5511 5512 5512 5511 5510 5512 5513 5514 5515 5515 5515 5516 5517 5518 5519 5520 5522 5523 5525 5526 5527 5529 5532 5534 5536 5538 5539 5541 5542 5543 5545 5546 5547 5548 5550 5551 5552 5554
5541 5541 5540 5539 5538 5537 5536 5535 5535 5534 5533 5532 5531 5530 5529 5528 5527 5526 5525 5523 5522 5521 5520 5518 5517 5516 5515 5514 5513 5512 5510 5510 5508 5507 5506 5505 5504 5503 5502 5501 5500 5500 5500 5500 5500 5499 5499 5500 5501 5502 5503 5503 5502 5502 5503 5505 5506 5506 5506 5507 5508 5509 5510 5511 5512 5513 5515 5516 5518 5519 5522 5524 5526 5528 5530 5532 5534 5535 5536 5538 5539 5541 5542 5543 5544 5546 5547
5538 5537 5537 5536 5534 5533 5532 5531 5530 5529 5528 5527 5526 5525 5524 5523 5522 5521 5520 5519 5517 5516 5515 5514 5513 5511 5510 5509 5508 5507 5506 5505 5504 5502 5501 5499 5498 5497 5496 5495 5495 5494 5493 5493 5492 5492 5492 5493 5494 5495 5496 5496 5495 5496 5497 5498 5499 5499 5500 5500 5501 5503 5504 5505 5506 5506 5507 5509 5510 5512 5514 5516 5518 5521 5523 5525 5527 5528 5530 5531 5533 5534 5535 5537 5538 5540 5541
5535 5534 5533 5532 5531 5530 5528 5527 5526 5525 5524 5522 5521 5521 5520 5519 5518 5517 5516 5515 5514 5513 5512 5510 5509 5508 5507 5506 5505 5504 5502 5501 5499 5498 5497 5495 5494 5493 5492 5491 5490 5489 5488 5487 5486 5486 5486 5487 5488 5489 5490 5490 5490 5491 5492 5493 5494 5494 5495 5495 5496 5498 5499 5499 5500 5501 5501 5502 5503 5505 5506 5509 5511 5513 5516 5518 5520 5522 5523 5525 5526 5528 5529 5531 5532 5534 5535
5532 5531 5530 5529 5528 5526 5525 5523 5522 5521 5520 5519 5518 5517 5516 5516 5515 5514 5513 5512 5511 5510 5509 5508 5506 5505 5504 5503 5502 5500 5499 5497 5496 5494 5493 5492 5490 5488 5487 5486 5484 5483 5482 5481 5481 5480 5481 5481 5482 5484 5484 5485 5486 5487 5488 5489 5490 5490 5490 5491 5491 5492 5493 5493 5494 5496 5497 5497 5498 5499 5500 5502 5504 5507 5509 5511 5513 5515 5517 5519 5520 5522 5524 5525 5527 5528 5529
5529 5528 5527 5526 5524 5523 5522 5520 5519 5518 5517 5516 5516 5515 5514 5513 5513 5512 5511 5510 5509 5508 5506 5505 5504 5503 5501 5500 5498 5497 5495 5494 5493 5491 5490 5488 5486 5484 5482 5480 5479 5478 5477 5476 5475 5475 5475 5476 5477 5478 5479 5480 5482 5483 5484 5485 5486 5486 5486 5487 5487 5488 5488 5489 5490 5491 5492 5492 5493 5494 5495 5497 5498 5501 5503 5505 5507 5509 5511 5513 5514 5516 5518 5520 5521 5522 5524
5526 5525 5524 5523 5521 5520 5519 5518 5517 5516 5515 5515 5514 5513 5512 5512 5511 5510 5509 5508 5507 5505 5504 5503 5501 5500 5498 5496 5495 5494 5492 5491 5490 5488 5487 5485 5482 5480 5478 5476 5474 5473 5472 5471 5471 5470 5470 5471 5472 5473 5474 5476 5478 5479 5480 5481 5482 5482 5482 5483 5483 5484 5484 5485 5486 5486 5487 5488 5489 5491 5491 5492 5494 5495 5498 5500 5502 5504 5506 5507 5509 5511 5512 5514 5516 5517 5519
5524 5522 5521 5520 5518 5517 5516 5515 5515 5514 5513 5513 5512 5511 5511 5510 5509 5508 5507 5506 5505 5503 5502 5501 5499 5498 5496 5494 5492 5491 5490 5489 5488 5486 5484 5482 5479 5477 5474 5472 5471 5469 5469 5468 5467 5467 5466 5467 5468 5469 5471 5473 5474 5476 5477 5478 5478 5478 5479 5479 5480 5481 5481 5481 5482 5482 5483 5485 5486 5487 5487 5488 5490 5491 5493 5495 5497 5498 5500 5502 5504 5506 5507 5509 5511 5512 5514
5521 5519 5518 5517 5516 5515 5514 5513 5513 5512 5512 5511 5511 5510 5509 5508 5507 5506 5505 5504 5503 5502 5500 5499 5498 5496 5494 5492 5491 5490 5489 5488 5487 5485 5483 5480 5477 5474 5472 5470 5469 5468 5467 5466 5465 5465 5465 5465 5466 5467 5469 5471 5472 5473 5474 5475 5475 5476 5476 5477 5478 5478 5479 5479 5479 5480 5480 5481 5482 5483 5483 5485 5486 5487 5489 5491 5492 5494 5496 5498 5500 5501 5503 5505 5506 5508 5510
5518 5517 5516 5514 5513 5513 5512 5511 5511 5510 5510 5510 5509 5508 5508 5507 5506 5505 5504 5502 5501 5500 5499 5498 5496 5494 5492 5491 5490 5489 5488 5487 5486 5484 5482 5479 5476 5473 5472 5470 5469 5468 5467 5466 5465 5465 5465 5465 5466 5467 5468 5470 5471 5472 5473 5474 5474 5474 5475 5475 5476 5477 5477 5478 5478 5478 5478 5479 5479 5480 5481 5482 5483 5485 5486 5488 5490 5492 5493 5495 5496 5498 5499 5501 5503 5505 5506
5515 5514 5513 5512 5511 5510 5510 5510 5509 5509 5508 5508 5508 5507 5506 5505 5504 5503 5502 5501 5500 5499 5498 5497 5495 5493 5491 5490 5489 5489 5488 5487 5485 5484 5482 5479 5477 5474 5472 5471 5470 5469 5468 5467 5466 5466 5466 5466 5466 5467 5468 5469 5470 5471 5472 5472 5473 5473 5474 5475 5475 5476 5476 5477 5477 5477 5477 5477 5477 5478 5479 5481 5482 5483 5485 5487 5488 5490 5492 5493 5495 5496 5497 5499 5501 5503 5505
5513 5512 5511 5510 5509 5509 5508 5508 5507 5507 5507 5507 5506 5505 5504 5503 5502 5502 5501 5500 5499 5498 5497 5496 5495 5493 5491 5490 5489 5488 5487 5486 5485 5484 5483 5481 5478 5476 5474 5473 5472 5471 5470 5469 5469 5468 5468 5468 5468 5468 5469 5470 5471 5471 5472 5473 5473 5474 5474 5475 5475 5476 5476 5476 5476 5476 5476 5476 5477 5478 5479 5480 5482 5483 5485 5486 5488 5490 5491 5493 5494 5496 5497 5499 5500 5502 5504
5511 5510 5509 5508 5507 5507 5506 5506 5506 5505 5505 5505 5504 5504 5503 5502 5501 5500 5499 5498 5498 5497 5497 5496 5494 5492 5491 5490 5489 5488 5487 5486 5485 5485 5483 5482 5480 5479 5477 5476 5475 5474 5473 5472 5472 5472 5471 5471 5471 5472 5472 5472 5473 5473 5473 5473 5474 5474 5474 5475 5475 5475 5476 5476 5476 5476 5477 5477 5478 5479 5480 5481 5483 5484 5485 5486 5488 5490 5491 5493 5494 5496 5497 5499 5501 5503 5505
5509 5508 5507 5506 5505 5505 5505 5504 5504 5504 5504 5503 5503 5502 5501 5500 5499 5499 5498 5498 5497 5497 5497 5496 5494 5492 5491 5490 5489 5488 5487 5486 5486 5485 5484 5483 5482 5481 5479 5478 5477 5476 5476 5475 5475 5474 5474 5474 5474 5474 5474 5474 5474 5474 5474 5474 5474 5475 5475 5475 5476 5476 5477 5477 5477 5477 5478 5479 5479 5480 5481 5482 5483 5485 5486 5487 5489 5490 5492 5493 5494 5496 5497 5499 5501 5503 5505
5506 5506 5505 5504 5504 5503 5503 5503 5503 5502 5502 5502 5501 5501 5500 5499 5498 5498 5498 5497 5497 5497 5496 5495 5494 5493 5491 5490 5490 5489 5488 5487 5487 5486 5485 5484 5483 5482 5481 5480 5479 5478 5478 5477 5477 5477 5477 5477 5477 5477 5477 5476 5476 5476 5475 5475 5475 5476 5476 5476 5477 5478 5478 5478 5478 5479 5480 5480 5481 5482 5483 5483 5484 5486 5487 5488 5489 5491 5492 5493 5494 5496 5498 5499 5501 5503 5504
5504 5503 5503 5502 5502 5501 5501 5501 5501 5501 5500 5500 5500 5499 5499 5498 5498 5498 5497 5497 5496 5496 5496 5495 5495 5494 5492 5491 5491 5490 5490 5489 5488 5487 5486 5485 5484 5484 5483 5482 5481 5481 5480 5480 5480 5480 5480 5480 5480 5480 5479 5479 5479 5478 5478 5478 5478 5478 5478 5478 5479 5479 5479 5480 5480 5481 5482 5482 5483 5484 5485 5485 5486 5487 5488 5489 5490 5491 5492 5493 5495 5496 5497 5499 5500 5502 5503
5501 5501 5501 5500 5500 5499 5499 5499 5499 5499 5499 5499 5498 5498 5498 5497 5497 5497 5497 5496 5496 5496 5496 5495 5495 5494 5493 5492 5492 5491 5491 5491 5489 5488 5487 5486 5486 5485 5485 5485 5485 5484 5483 5483 5483 5483 5483 5483 5483 5483 5483 5482 5482 5481 5481 5481 5481 5481 5481 5481 5481 5481 5482 5482 5482 5483 5483 5484 5484 5485 5486 5487 5487 5488 5489 5490 5491 5491 5492 5493 5495 5496 5497 5498 5499 5501 5502
5498 5498 5498 5498 5497 5497 5497 5498 5498 5498 5498 5497 5497 5497 5497 5496 5496 5496 5496 5496 5496 5496 5496 5495 5495 5495 5494 5493 5493 5492 5492 5492 5491 5490 5489 5489 5488 5488 5488 5487 5487 5487 5486 5486 5486 5485 5485 5485 5485 5485 5486 5486 5485 5485 5485 5484 5484 5484 5484 5484 5484 5484 5484 5484 5484 5485 5485 5485 5486 5486 5487 5487 5488 5489 5489 5490 5491 5492 5492 5493 5494 5495 5496 5497 5499 5500 5501
5496 5496 5496 5496 5495 5495 5495 5496 5496 5496 5496 5496 5496 5496 5495 5495 5496 5496 5496 5495 5496 5496 5496 5495 5495 5495 5495 5494 5493 5493 5493 5492 5492 5491 5491 5490 5490 5490 5489 5489 5489 5489 5489 5489 5488 5488 5488 5488 5488 5488 5488 5488 5488 5487 5487 5487 5487 5486 5486 5486 5486 5486 5486 5486 5487 5487 5487 5487 5487 5487 5488 5488 5489 5490 5490 5491 5491 5492 5493 5493 5494 5495 5496 5497 5499 5500 5501
5493 5493 5493 5493 5493 5493 5493 5494 5494 5494 5494 5494 5494 5494 5494 5494 5495 5495 5495 5495 5495 5495 5495 5495 5495 5495 5495 5495 5494 5494 5493 5493 5492 5492 5492 5492 5491 5491 5491 5491 5491 5491 5490 5490 5490 5490 5490 5489 5489 5489 5489 5489 5489 5489 5489 5489 5488 5488 5488 5488 5488 5488 5488 5489 5489 5489 5489 5489 5489 5489 5489 5490 5490 5491 5491 5492 5492 5493 5493 5494 5495 5496 5497 5498 5499 5500 5501
5490 5490 5490 5491 5491 5491 5491 5491 5492 5492 5492 5493 5493 5493 5493 5493 5493 5494 5494 5494 5495 5495 5495 5495 5495 5495 5495 5495 5495 5494 5494 5494 5493 5493 5493 5492 5492 5492 5492 5492 5492 5492 5492 5492 5492 5492 5491 5491 5491 5491 5491 5490 5490 5490 5490 5490 5490 5490 5490 5490 5490 5490 5490 5490 5490 5490 5490 5490 5490 5490 5491 5491 5491 5492 5492 5493 5493 5494 5494 5495 5495 5496 5497 5498 5499 5500 5501
5488 5488 5488 5488 5488 5488 5489 5489 5490 5490 5490 5491 5491 5491 5491 5492 5492 5493 5493 5494 5494 5494 5495 5495 5495 5495 5495 5495 5495 5495 5495 5494 5494 5494 5493 5493 5493 5493 5493 5493 5493 5493 5493 5493 5493 5493 5493 5493 5493 5492 5492 5492 5492 5492 5492 5492 5492 5492 5492 5492 5492 5492 5492 5492 5492 5492 5492 5492 5492 5492 5492 5492 5492 5493 5493 5493 5494 5494 5495 5495 5496 5497 5498 5498 5499 5500 5501
5485 5485 5485 5485 5485 5486 5486 5486 5487 5488 5488 5488 5489 5489 5490 5490 5491 5491 5492 5492 5493 5494 5494 5494 5495 5495 5495 5494 5494 5494 5495 5495 5494 5494 5494 5494 5494 5494 5494 5494 5494 5494 5494 5494 5494 5494 5494 5494 5494 5494 5494 5494 5494 5494 5494 5494 5494 5494 5494 5494 5494 5494 5493 5493 5493 5493 5493 5493 5493 5493 5493 5493 5493 5493 5494 5494 5494 5495 5495 5496 5496 5497 5497 5498 5499 5499 5500
5481 5482 5482 5482 5482 5483 5483 5484 5484 5485 5485 5486 5487 5487 5488 5489 5489 5490 5491 5491 5492 5492 5493 5493 5494 5494 5494 5494 5494 5494 5494 5494 5494 5494 5494 5494 5494 5494 5494 5495 5495 5495 5495 5495 5495 5495 5495 5495 5495 5495 5495 5495 5495 5495 5495 5495 5495 5495 5495 5495 5494 5494 5494 5494 5494 5494 5494 5494 5494 5494 5494 5494 5494 5494 5494 5494 5495 5495 5495 5495 5496 5496 5497 5497 5498 5498 5498
5478 5478 5478 5479 5479 5479 5480 5480 5481 5482 5483 5483 5484 5485 5486 5487 5487 5488 5489 5490 5490 5491 5491 5492 5492 5493 5493 5494 5493 5493 5493 5493 5494 5494 5494 5494 5494 5494 5494 5494 5495 5495 5495 5495 5495 5495 5495 5495 5495 5495 5495 5495 5495 5495 5495 5495 5495 5495 5495 5495 5495 5495 5495 5494 5494 5494 5494 5494 5494 5494 5494 5494 5494 5494 5494 5494 5495 5495 5495 5495 5495 5495 5496 5496 5496 5496 5497
5475 5475 5475 5475 5476 5476 5477 5477 5478 5478 5479 5481 5482 5482 5483 5484 5485 5486 5487 5487 5488 5489 5490 5490 5491 5491 5492 5492 5493 5493 5493 5493 5493 5493 5493 5494 5494 5494 5494 5494 5494 5494 5494 5494 5494 5495 5495 5495 5495 5495 5495 5495 5495 5495 5495 5495 5495 5495 5495 5494 5494 5494 5494 5494 5494 5493 5493 5493 5493 5493 5493 5493 5493 5493 5493 5493 5493 5493 5494 5494 5494 5494 5494 5494 5494 5494 5494
5471 5471 5471 5472 5472 5473 5473 5474 5474 5475 5476 5477 5479 5480 5480 5481 5482 5483 5484 5485 5486 5487 5487 5488 5489 5489 5490 5490 5491 5491 5492 5492 5492 5492 5493 5493 5493 5493 5493 5493 5493 5494 5494 5494 5494 5494 5494 5494 5494 5494 5494 5493 5493 5493 5493 5493 5493 5493 5493 5493 5493 5493 5492 5492 5492 5492 5491 5491 5491 5491 5491 5491 5491 5491 5491 5491 5491 5491 5491 5491 5491 5491 5491 5491 5491 5491 5491